Location: Boullarre
(49.1305°N, 3.0047°E)
Time: 05:33:43
(UTC+00:00)

SL-08 ROCKET BODY - Pass Details

Date: 13 October 2024
Orbit: 895 x 963 km, 82.9° (Epoch: 09 November)

Event Time Altitude Azimuth Distance (km) Brightness Sun altitude
Rises 19:24:18 0° 340° (NNW) 3,575 7.9 -24.0°
Reaches altitude 10° 19:27:17 10° 327° (NNW) 2,616 7.4 -24.5°
Maximum altitude 19:31:44 22° 278° (W) 1,858 6.7 -25.2°
Drops below altitude 10° 19:36:07 10° 229° (SW) 2,575 7.1 -25.9°
Sets 19:39:03 0° 215° (SW) 3,505 7.6 -26.3°
